This is the latest recevied weather packets stored in our database for station/object KC3BHK-2. If no packets are shown the sender has not sent any weather packets the latest 1 day(s).
| Time | Temp. | Humidity | Pressure | Rain* | Wind** | Luminosity | Snow |
|---|---|---|---|---|---|---|---|
| 1836274531 | 20° C | - | - | 0 mm | 0 m/s | - | - |
| 1836274391 | 20.56° C | - | - | 0 mm | 0 m/s | - | - |
| 1836274226 | 20° C | - | - | 0 mm | 0 m/s | - | - |
| 1836273921 | 19.44° C | - | - | 0 mm | 0 m/s | - | - |
| 1778048828 | 20° C | - | - | 0 mm | 2.24 m/s, 152° | - | - |
| 1778048523 | 20° C | - | - | 0 mm | 2.24 m/s, 150° | - | - |
| 1778048217 | 19.44° C | - | - | 0 mm | 3.58 m/s, 165° | - | - |
| 1778047910 | 19.44° C | - | - | 0 mm | 1.34 m/s, 173° | - | - |
| 1778047605 | 20.56° C | - | - | 0 mm | 3.13 m/s, 186° | - | - |
| 1778047301 | 20° C | - | - | 0 mm | 3.13 m/s, 204° | - | - |
| 1778046996 | 20° C | - | - | 0 mm | 4.02 m/s, 197° | - | - |
| 1778046691 | 20° C | - | - | 0 mm | 2.24 m/s, 190° | - | - |
| 1778046386 | 20° C | - | - | 0 mm | 4.02 m/s, 162° | - | - |
| 1778046079 | 20° C | - | - | 0 mm | 2.24 m/s, 152° | - | - |
| 1778045773 | 20° C | - | - | 0 mm | 2.24 m/s, 131° | - | - |
| 1778045468 | 20.56° C | - | - | 0 mm | 2.68 m/s, 163° | - | - |
| 1778045164 | 20° C | - | - | 0 mm | 3.58 m/s, 145° | - | - |
| 1778044859 | 20.56° C | - | - | 0 mm | 2.24 m/s, 207° | - | - |
| 1778044553 | 20° C | - | - | 0 mm | 2.68 m/s, 218° | - | - |
| 1778044246 | 20° C | - | - | 0 mm | 2.68 m/s, 131° | - | - |
| 1778043941 | 20.56° C | - | - | 0 mm | 4.02 m/s, 135° | - | - |
| 1778043636 | 20.56° C | - | - | 0 mm | 3.58 m/s, 184° | - | - |
| 1778043332 | 20° C | - | - | 0 mm | 3.58 m/s, 183° | - | - |
| 1778043026 | 20.56° C | - | - | 0 mm | 2.68 m/s, 155° | - | - |
| 1778042414 | 20.56° C | - | - | 0 mm | 3.13 m/s, 149° | - | - |
* Rain latest hour (hover to see other rain measurements)
** Current wind speed in m/s (hover to see current wind gust speed)